Location: State Camp
(41.2367°N, 77.7828°W)
Time: 14:29:47
(UTC-04:00)

Daily predictions for brighter satellites

Satellite Brightness Start Highest point End
(mag) Time Altitude Azimuth Time Altitude Azimuth Time Altitude Azimuth
Cosmos 1812 2.7 20:56:29 10° S 21:00:19 78° E 21:04:10 10° N
YAOGAN 6 2.9 20:57:51 10° S 21:01:33 72° W 21:05:16 10° NNW
Cosmos 1802 Rocket 4.1 20:57:30 10° S 21:03:48 83° E 21:10:13 10° N
Cosmos 1833 Rocket 3.2 20:58:51 10° SSW 21:04:27 68° WNW 21:10:04 10° NNE
Cosmos 1666 4.5 21:01:55 10° NNE 21:04:36 18° ENE 21:07:17 10° ESE
H-2A R/B 3.4 21:04:10 10° ESE 21:07:57 23° ENE 21:11:49 10° NNE
Cosmos 2369 4.5 21:02:41 10° NNW 21:08:10 53° WSW 21:13:39 10° S
Cosmos 304 Rocket 4.4 21:04:34 10° SSE 21:08:54 34° ESE 21:13:15 10° NE
DNEPR-1 R/B 4.1 21:06:00 10° S 21:09:49 35° ESE 21:14:00 10° NE
Abrixas rocket 4.0 21:12:44 10° SSE 21:14:22 13° SE 21:15:55 10° ESE
Cosmos 44 4.4 21:12:13 10° NW 21:17:21 48° WSW 21:22:32 10° S
ATLAS CENTAUR R/B 1.8 21:14:16 10° NNW 21:18:46 65° NE 21:23:09 12° SE
ERS-2 2.8 21:15:30 10° S 21:19:06 54° WSW 21:22:44 10° NNW
NOSS 3-2 (A) 3.7 21:14:48 10° S 21:20:18 45° ESE 21:26:20 10° NE
SL-24 R/B 4.4 21:15:36 10° S 21:20:25 82° E 21:25:34 10° N
USA 234 3.4 21:15:12 10° NE 21:21:48 87° NW 21:28:23 10° SW
NOSS 3-2 (C) 4.0 21:18:34 10° S 21:23:45 34° ESE 21:29:21 10° NE
Cosmos 1536 4.4 21:20:29 10° NNW 21:24:14 36° W 21:27:57 10° SSW
Okean 1 Rocket 3.2 21:20:55 10° N 21:25:13 57° E 21:29:28 10° SSE
Cosmos 1975 Rocket 4.1 21:22:29 11° SE 21:25:58 27° E 21:29:38 10° NNE
Cosmos 1242 Rocket 4.0 21:23:18 10° NNE 21:26:16 23° ENE 21:28:22 14° ESE
Cosmos 1674 Rocket 3.7 21:22:33 10° S 21:27:00 79° W 21:31:29 10° N
Cosmos 1378 Rocket 3.5 21:23:08 10° S 21:27:23 61° E 21:31:39 10° NNE
Cosmos 2233 Rocket 4.2 21:22:31 10° SSE 21:28:22 48° E 21:34:16 10° NNE
Atlas Centaur 2 2.9 21:28:59 10° SW 21:31:06 15° S 21:32:12 13° SSE
Resurs 01 Rocket 2.3 21:26:54 10° S 21:31:11 53° W 21:35:31 10° NNW
ERS-1 Rocket 4.0 21:27:59 13° SE 21:31:43 31° ENE 21:36:06 10° N
Tiangong 2 2.2 21:30:15 10° SSW 21:32:52 24° SSE 21:34:27 17° ESE
Cosmos 2082 Rocket 3.6 21:29:13 10° SW 21:34:36 44° WNW 21:40:02 10° NNE
Cosmos 1975 3.1 21:31:13 10° N 21:35:11 49° E 21:38:14 15° SSE
NOAA 11 4.4 21:31:40 10° S 21:37:08 72° WSW 21:42:36 10° NNW
COSMOS 2487 2.6 21:33:41 10° SSW 21:37:10 74° WNW 21:40:41 10° NNE
Cosmos 2322 Rocket 3.2 21:33:01 10° N 21:38:05 33° ENE 21:42:00 15° ESE
CZ-4B DEB 4.4 21:38:29 13° SSE 21:41:33 89° ENE 21:45:03 10° NNW
SL-16 R/B 3.0 21:39:17 10° N 21:44:36 39° ENE 21:48:26 17° ESE
Timation 2 Rocket 4.0 21:44:24 10° S 21:50:08 52° ESE 21:55:58 10° NE
ARGOS 3.1 21:49:16 15° SSE 21:53:45 77° ENE 21:59:10 10° N
Meteor 1-19 Rocket 4.4 21:49:50 10° S 21:55:36 58° E 22:01:25 10° NNE
SPOT 5 3.8 21:54:03 20° ESE 21:56:09 29° ENE 22:00:01 10° N
GPS 2-04 Rocket1 3.8 21:54:24 10° WSW 21:58:10 31° SSW 21:59:43 24° SSE
CENTAUR R/B 3.3 21:55:22 19° SSE 21:58:12 27° ESE 22:03:30 10° NE
SJ 16-02 3.6 22:01:18 10° NNE 22:03:11 12° ENE 22:05:00 10° E
Helios 1A 3.7 22:03:55 25° ESE 22:05:38 37° ENE 22:09:29 10° N
ATLAS 3B R/B 3.2 22:00:38 10° SW 22:07:47 66° NW 22:14:41 10° NNE
Cosmos 1464 Rocket 4.4 22:09:53 22° SSE 22:13:43 47° E 22:19:47 10° NNE
USA 32 4.1 22:12:15 10° N 22:17:27 61° E 22:20:04 29° SSE
Cosmos 2084 3.5 22:17:48 19° S 22:20:38 50° ESE 22:24:39 10° NE
Terra 3.0 22:20:01 23° E 22:21:36 28° ENE 22:25:38 10° N
Lacrosse 5 rocket 3.7 22:21:47 10° NNW 22:24:50 18° NNE 22:27:46 10° ENE
Cosmos 1937 Rocket 3.4 22:20:29 10° NNW 22:25:38 73° ENE 22:27:55 33° SSE
Cosmos 468 Rocket 4.2 22:20:23 10° SSW 22:25:39 73° WNW 22:30:55 10° NNE
USA 245 2.8 22:25:00 50° S 22:25:45 87° WSW 22:29:34 10° NNW
Shenzhou-11 Module 2.3 22:23:18 10° W 22:26:14 61° N 22:26:59 42° ENE
Aureole 2 Rocket 3.6 22:24:16 10° N 22:26:40 24° ENE 22:26:40 24° ENE
ISS -2.9 22:27:02 10° WSW 22:30:13 50° NNW 22:33:25 10° NE
Cosmos 2360 Rocket 3.0 22:25:25 10° N 22:30:40 38° ENE 22:33:03 26° ESE
SL-08 RB Rocket 4.2 22:29:44 23° S 22:32:19 54° W 22:36:48 10° NNW
CZ-4C R/B 4.4 22:27:05 10° NNW 22:32:43 25° NE 22:38:52 10° E
CARTOSAT-1 4.3 22:31:49 33° ESE 22:32:47 37° ENE 22:36:47 10° N
Cosmos 1980 Rocket 3.8 22:28:21 10° NW 22:33:06 28° WSW 22:37:31 11° SSW
Cosmos 2219 Rocket 4.3 22:33:52 10° NNE 22:36:52 14° NE 22:39:51 10° E
Meteor 2-9 Rocket 4.1 22:32:49 10° N 22:38:10 85° W 22:40:44 32° S
Cosmos 1763 Rocket 3.5 22:34:07 15° SSW 22:38:37 88° WNW 22:43:56 10° NNE
Cosmos 1666 4.4 22:36:52 10° NNW 22:40:16 29° W 22:42:32 17° SW
Cosmos 841 Rocket 3.4 22:37:55 30° S 22:40:27 67° ESE 22:45:41 10° NNE
Cosmos 1743 4.3 22:38:20 10° NNW 22:41:44 30° W 22:43:46 19° SW
Cosmos 540 Rocket 3.9 22:41:48 38° ESE 22:42:26 39° ESE 22:47:14 10° NE
Cosmos 2333 Rocket 4.4 22:39:22 10° NNE 22:42:29 15° NE 22:45:37 10° E
SPOT 1/Viking Rocket 3.5 22:40:44 37° SSE 22:42:52 85° ENE 22:48:03 10° NNW
Okean 2 4.4 22:45:24 32° E 22:45:24 32° E 22:48:49 10° NNE
COSMOS 2428 4.3 22:41:53 10° N 22:46:20 23° NE 22:48:47 17° E
H-2A R/B 2.9 22:44:13 21° SSW 22:47:06 41° W 22:51:49 10° NNW
CZ-2C R/B 3.7 22:42:52 10° NE 22:47:37 28° E 22:47:57 27° E
DMSP B5D2-2 4.2 22:43:23 10° N 22:48:40 78° WNW 22:52:04 23° SSW
Meteor 2-4 Rocket 3.8 22:45:41 21° SSW 22:49:25 71° WNW 22:54:57 10° N
Abrixas rocket 3.9 22:47:09 10° WSW 22:48:33 24° WSW 22:48:33 24° WSW
Helios 1B rocket 2.3 22:47:45 10° NNE 22:51:55 84° ESE 22:52:46 56° S
Cosmos 1340 Rocket 2.9 22:51:32 45° SSW 22:52:41 73° W 22:56:46 10° N
IGS 5A 3.4 22:53:25 59° ESE 22:53:55 65° ENE 22:58:03 10° N
Cosmos 1455 Rocket 3.3 22:50:34 10° NNW 22:54:52 63° W 22:56:06 43° SSW
Cosmos 1833 4.2 22:53:11 36° S 22:55:31 66° ESE 23:01:11 10° NNE
ATLAS CENTAUR R/B 4.0 22:54:41 10° WNW 22:57:20 15° WSW 22:59:24 12° SW
Cosmos 1025 Rocket 3.7 22:59:55 38° E 22:59:55 38° E 23:03:40 10° NNE
Cosmos 1356 3.7 23:02:49 65° W 23:02:49 65° W 23:06:17 10° N
Spot 1 3.8 23:04:56 72° S 23:05:21 86° WSW 23:09:28 10° NNW
Tiangong 2 3.7 23:06:13 10° WSW 23:06:44 14° WSW 23:06:44 14° WSW
ERS-1 Rocket 4.4 23:07:59 20° SW 23:10:26 31° W 23:14:52 10° NW
BREEZE M DEB (TANK) 3.0 23:06:28 10° WNW 23:13:14 46° SW 23:13:14 46° SW
Cosmos 2322 3.9 23:07:59 10° NNW 23:13:42 61° ENE 23:15:05 47° ESE
Meteor 1-29 3.4 23:10:24 10° N 23:13:38 62° NW 23:13:38 62° NW
Meteor 1-15 Rocket 4.2 23:09:22 10° N 23:15:10 84° W 23:16:45 50° S
Cosmos 1125 Rocket 3.8 23:11:27 10° N 23:16:36 52° ENE 23:17:27 47° E
Cosmos 292 Rocket 4.3 23:16:51 30° SW 23:18:59 57° WNW 23:23:41 10° NNE
Cosmos 2322 Rocket 3.2 23:17:01 10° NW 23:22:06 36° WSW 23:23:50 29° SW
Cosmos 1092 Rocket 4.1 23:16:54 10° N 23:23:13 63° E 23:24:43 49° SE
Cosmos 1066 Rocket 4.1 23:24:23 58° ESE 23:24:49 60° E 23:30:09 10° NNE
Cosmos 2237 Rocket 4.3 23:21:28 10° N 23:25:11 17° NE 23:27:50 13° E
SL-16 R/B 3.5 23:23:40 10° NW 23:28:32 30° WSW 23:30:19 25° SW
Nadezhda 4 Rocket 4.0 23:23:38 10° N 23:29:57 80° W 23:31:47 49° S
Cosmos 836 Rocket 4.3 23:31:57 69° S 23:32:36 86° ESE 23:37:50 10° NNE
SPOT 5 4.2 23:33:18 23° WSW 23:34:13 25° W 23:37:55 10° NW
Cosmos 2237 4.1 23:34:12 10° NNW 23:39:57 85° WSW 23:40:45 67° S
CZ-2C R/B 3.1 23:41:02 61° SSW 23:41:47 69° WSW 23:47:17 10° NNW
SJ 16-02 1.5 23:37:51 10° NNW 23:42:00 67° WNW 23:42:00 67° WNW
Cosmos 2219 3.7 23:44:28 45° E 23:44:28 45° E 23:49:30 10° NE
ADEOS Rocket 4.4 23:41:05 10° NE 23:44:21 19° E 23:44:21 19° E
CENTAUR R/B 3.1 23:42:24 10° SW 23:48:17 55° NW 23:55:05 10° NNE
Cosmos 1726 Rocket 4.3 23:44:40 10° N 23:48:18 44° NE 23:48:18 44° NE
Mayak 0.8 23:48:12 10° NE 23:50:06 20° ENE 23:50:06 20° ENE
Cosmos 2058 Rocket 4.2 23:48:22 10° N 23:52:00 36° ENE 23:52:00 36° ENE
